Regional Weather Roundup
Issued by NWS

Home | Current Version | Previous Version | Text Only | Print | Product List | Glossary Off
Versions: 1 2 3 4 5 6 7 8 9 10 11 12 13 14 15 16 17 18 19 20 21 22 23 24 25 26 27 28 29 30 31 32 33 34 35 36 37 38 39 40 41 42 43 44 45 46 47 48 49 50

000
ASUS45 KTFX 180304
RWRMT
MONTANA HOURLY WEATHER ROUNDUP
NATIONAL WEATHER SERVICE GREAT FALLS MT
804 PM MST WED DEC 17 2014

NOTE: "FAIR" INDICATES FEW OR NO CLOUDS BELOW 12000 FEET WITH NO
SIGNIFICANT WEATHER AND/OR OBSTRUCTIONS TO VISIBILITY.

* THESE STATIONS ARE NOT UNDER NWS QUALITY CONTROL. THEY DO NOT
   REPORT WEATHER SUCH AS PRECIPITATION OR FOG.

MTZ001>007-043-180400-
WEST OF THE DIVIDE
CITY           SKY/WX    TMP DP  RH WIND       PRES   REMARKS
KALISPELL      CLOUDY    27  23  85 CALM      29.96R
MISSOULA       PTCLDY    27  23  85 CALM      29.98R
BUTTE          MOCLDY    16  12  84 SE5       29.94R WCI   8
MULLAN PASS    LGT SNOW  27  27 100 VRB5      29.87S WCI  21
* ANACONDA     MOCLDY    25  19  78 N/A        N/A
* ESSEX        N/A       28  26  92 NW1        N/A
* LINCOLN      N/A       19  17  92 N/A        N/A
* LOOKOUT PASS N/A       29  28  96 N/A        N/A
* POLSON       N/A       26  26 100 N/A        N/A
* RONAN APT    PTCLDY    30  27  89 N/A        N/A
* SEELEY LAKE  N/A       19  17  92 N2         N/A
* THOMP F APT  PTCLDY    18  14  84 N5         N/A   WCI  11
$$

MTZ008-052>055-180400-
SOUTHWEST MONTANA
CITY           SKY/WX    TMP DP  RH WIND       PRES   REMARKS
BOZEMAN        CLEAR     18  14  84 SE3       29.97R
DILLON         PTCLDY    25  16  69 S9        29.96R WCI  16
* W YELLOWSTON PTCLDY    22  19  88 N/A        N/A
* THREE FORKS  PTCLDY    19   1  45 N/A        N/A
* BOULDER HILL N/A       25  17  72 SW7        N/A   WCI  17
* MONIDA PASS  N/A       17  17 100 SE4        N/A
* RAYNOLDS PAS N/A       17  -2  43 SE2        N/A
* WHITEHALL    N/A       23  18  81 N7         N/A   WCI  15
* WISE RIVER   N/A       18  15  88 SE3        N/A
$$

MTZ009>010-012-014-046-048-049-054-180400-
EAST SLOPES AND CENTRAL MONTANA
CITY           SKY/WX    TMP DP  RH WIND       PRES   REMARKS
CUT BANK       FOG        7   3  83 N5        29.86S VSB 1/2  WCI  -2
GREAT FALLS    CLEAR     28  25  89 S10       29.87R WCI  19
HELENA         CLEAR     21  19  92 N3        29.94R
* DEARBORN     N/A       27  25  92 S3         N/A
* EAST GLACIER N/A       33  23  67 W15G20     N/A   WCI  23
* MONARCH      N/A       26  17  69 S9         N/A   WCI  17
* PENDROY      N/A       23  22  96 S2         N/A
* SWEET GRASS  N/A       17  17 100 S8         N/A   WCI   7
$$

MTZ011-013-016-021-035-040-045-047-050-051-180400-
NORTH CENTRAL MONTANA
CITY           SKY/WX    TMP DP  RH WIND       PRES   REMARKS
HAVRE          FOG       14  12  92 CALM      29.92S VSB 1 1/4
LEWISTOWN      CLOUDY    30  27  89 CALM      29.88R
* N BAR RANCH  CLOUDY    30  28  92 CALM      29.89S
* CHESTER      N/A       21  19  92 N2         N/A
* DENTON       N/A       29  28  96 SW1        N/A
* GEYSER       N/A       29  22  75 N2         N/A
* JUDITH GAP   N/A       22  20  92 S4         N/A
* LOMA         N/A       24  23  96 NE8        N/A   WCI  15
$$

MTZ017>020-022>027-061-062-180400-
NORTHEAST MONTANA
CITY           SKY/WX    TMP DP  RH WIND       PRES   REMARKS
GLASGOW        CLOUDY    23  19  85 E9        29.98S WCI  13
GLENDIVE       CLOUDY    21  18  88 SE6       30.01S WCI  13
JORDAN         PTCLDY    27  21  78 S6        29.94F WCI  20
SIDNEY         CLOUDY    21  18  88 E5        30.07S WCI  14
WOLF POINT     CLOUDY    25  19  78 E7        30.03S WCI  17
* BEAVER HILL  N/A       20  17  88 SE8        N/A   WCI  10
* CIRCLE       N/A       24  21  88 SE3        N/A
* LINDSAY DVD  N/A       20  19  96 SE4        N/A
* NAVAJO       N/A       17  15  92 S9         N/A   WCI   6
* SACO         N/A       24  20  85 E9         N/A   WCI  14
$$

MTZ028>042-056>058-180400-
SOUTHCENTRAL AND SOUTHEAST MONTANA
CITY           SKY/WX    TMP DP  RH WIND       PRES   REMARKS
BAKER          CLOUDY    21  19  92 SE10      29.98F WCI  10
BILLINGS       MOCLDY    30  21  69 SW22      29.92S WCI  17
LIVINGSTON     CLEAR     36  19  50 W20G33    29.90R WCI  25
MILES CITY     CLOUDY    25  21  85 SE8       29.96F WCI  16
* LAUREL APT   PTCLDY    28  16  61 S7         N/A   WCI  21
* ROUNDUP APT  CLOUDY    28  23  81 N/A        N/A
* ALZADA       N/A       19  18  96 SE2        N/A
* HYSHAM       N/A       26  21  81 W3         N/A
* LAME DEER    N/A       26  25  96 N/A        N/A
* REED POINT   N/A       25  23  92 N/A        N/A
* ROSCOE HILL  N/A       29  13  51 S5         N/A   WCI  24
$$

REGIONAL REPORTS...DAKOTAS
CITY           SKY/WX    TMP DP  RH WIND       PRES   REMARKS
WILLISTON      CLOUDY    19  14  81 SE10      30.08F WCI   8
DICKINSON      FOG       18  14  84 S15       30.03F WCI   4
BEACH          CLOUDY    19  19 100 S12       30.01F WCI   6
CROSBY         CLOUDY    18  16  92 S16       30.10F WCI   3
WATFORD CITY   CLOUDY    18  14  84 SE10      30.06F WCI   6
BISMARCK       CLOUDY    16  12  84 SE7       30.19F WCI   6
GRAND FORKS    PTCLDY     7   3  83 W3        30.31F
FARGO          PTCLDY    10   5  80 CALM      30.32R
BUFFALO SD     CLEAR     19  18  96 SE9       29.93F WCI   8
RAPID CITY     CLOUDY    23  19  85 SE3       30.01F
$$

REGIONAL REPORTS...WYOMING/IDAHO/WASHINGTON
CITY           SKY/WX    TMP DP  RH WIND       PRES   REMARKS
GILLETTE       CLEAR     19  14  81 CALM      29.94S
SHERIDAN       PTCLDY    12   9  88 NW3       29.93F
CODY           CLEAR     16  10  77 S6        29.90F WCI   7
YELLOWSTONE LA MOCLDY    19  16  88 CALM      29.98R
SALMON         PTCLDY    21  18  88 CALM      30.03R
MULLAN PASS    LGT SNOW  27  27 100 VRB5      29.87S WCI  21
SAND POINT     LGT SNOW  32  32 100 CALM      29.97S
SPOKANE        CLOUDY    36  34  92 NE7       29.93R WCI  30

$$



USA.gov is the U.S. government's official web portal to all federal, state and local government web resources and services.